Home   Weather   Havana   Past weeks
Flag for Cuba

Past Weather in Havana, Cuba — Yesterday and Last 2 Weeks

Now
68 °F

Passing clouds.


Feels Like: 68 °F
Forecast: 87 / 71 °F
Wind: No wind

Location: Aeropuerto Jose Marti - Rancho-Boyeros - Habana

Current Time: Apr 5, 2020 at 6:34:50 am

Latest Report: Apr 5, 2020 at 5:55 am


Visibility: 6 mi

Pressure: 29.89 "Hg

Humidity: 88%

Dew Point: 64 °F

Location of HavanaLocation

Past Weather in Havana — Graph

°F

Havana Temperature Yesterday

Maximum temperature yesterday: 90 °F (at 1:55 pm)
Minimum temperature yesterday: 70 °F (at 1:55 am)
Average temperature yesterday: 78 °F

High & Low Weather Summary for the Past Weeks

 TemperatureHumidityPressure
High91 °F (Mar 27, 2:55 pm)100% (Mar 21, 6:55 am)30.21 "Hg (Mar 21, 6:55 am)
Low57 °F (Apr 3, 6:55 am)28% (Mar 28, 1:55 pm)29.83 "Hg (Apr 1, 4:55 pm)
Average77 °F73%30.02 "Hg
* Reported Mar 21 4:55 am — Apr 5 4:55 am, Havana. Weather by CustomWeather, © 2020

Note: Actual official high and low records may vary slightly from our data, if they occured in-between our weather recording intervals... More about our weather records

Havana Weather History for the Previous 24 Hours

Scroll right to see more
 ConditionsComfort  
Time TempWeatherWind HumidityBarometerVisibility
4:55 am
Sun, Apr 5
68 °FPassing clouds.2 mph88%29.89 "Hg6 mi
3:55 am70 °FPassing clouds.3 mph83%29.89 "Hg6 mi
2:55 am70 °FPassing clouds.3 mph83%29.92 "Hg6 mi
1:55 am72 °FPassing clouds.5 mph73%29.92 "Hg6 mi
12:55 am75 °FPassing clouds.6 mph69%29.92 "Hg6 mi
11:55 pm
Sat, Apr 4
75 °FPassing clouds.5 mph69%29.95 "Hg6 mi
10:55 pm75 °FPassing clouds.5 mph69%29.95 "Hg6 mi
9:55 pm75 °FPassing clouds.3 mph69%29.95 "Hg6 mi
8:55 pm79 °FPassing clouds.8 mph61%29.95 "Hg6 mi
7:55 pm81 °FPassing clouds.10 mph58%29.92 "Hg6 mi
6:55 pm84 °FScattered clouds.12 mph51%29.89 "HgN/A
5:55 pm84 °FScattered clouds.9 mph55%29.86 "Hg6 mi
4:55 pm86 °FPartly sunny.9 mph52%29.86 "Hg6 mi
3:55 pm86 °FScattered clouds.8 mph52%29.89 "Hg6 mi
1:55 pm90 °FScattered clouds.2 mph43%29.92 "Hg6 mi
12:55 pm88 °FScattered clouds.3 mph46%29.95 "Hg6 mi
11:55 am84 °FPassing clouds.3 mph55%29.95 "Hg6 mi
10:55 am82 °FPassing clouds.3 mph58%29.98 "Hg6 mi
9:55 am81 °FClear.5 mph62%29.98 "Hg6 mi
8:55 am75 °FPassing clouds.5 mph74%29.95 "Hg6 mi
7:55 am72 °FPassing clouds.2 mph78%29.92 "Hg6 mi
6:55 am70 °FClear.3 mph83%29.89 "Hg6 mi
Weather by CustomWeather, © 2020

See weather overview

Advertising